This is the latest recevied weather packets stored in our database for station/object LU4EGV-13. If no packets are shown the sender has not sent any weather packets the latest 10 day(s).
| Time | Temp. | Humidity | Pressure | Rain* | Wind** | Luminosity | Snow |
|---|---|---|---|---|---|---|---|
| 1777307866 | 16.67° C | 52% | 1013.6 hPa | 9.91 mm | - | - | - |
| 1777307259 | 16.11° C | 52% | 1013.8 hPa | 8.64 mm | - | - | - |
| 1777306652 | 16.11° C | 53% | 1013.8 hPa | 5.59 mm | - | - | - |
| 1777306047 | 15.56° C | 54% | 1014.1 hPa | 5.08 mm | - | - | - |
| 1777305453 | 16.11° C | 52% | 1014 hPa | 0 mm | - | - | - |
| 1777304834 | 16.11° C | 54% | 1014.1 hPa | 0 mm | - | - | - |
| 1777304228 | 15.56° C | 54% | 1014 hPa | 0 mm | - | - | - |
| 1777303640 | 15.56° C | 55% | 1014 hPa | 0 mm | - | - | - |
| 1777303025 | 15° C | 55% | 1013.9 hPa | 1.02 mm | - | - | - |
| 1777302410 | 15° C | 57% | 1013.9 hPa | 1.02 mm | - | - | - |
| 1777301812 | 15° C | 57% | 1014 hPa | 2.79 mm | - | - | - |
| 1777301202 | 14.44° C | 58% | 1014 hPa | 2.79 mm | - | - | - |
| 1777300602 | 14.44° C | 60% | 1014.3 hPa | 2.79 mm | - | - | - |
| 1777299985 | 13.89° C | 61% | 1014.3 hPa | 2.79 mm | - | - | - |
| 1777299380 | 13.33° C | 61% | 1014.3 hPa | 1.78 mm | - | - | - |
| 1777298772 | 12.78° C | 62% | 1014.3 hPa | 1.78 mm | - | - | - |
| 1777298166 | 12.22° C | 63% | 1014.5 hPa | 0 mm | - | - | - |
| 1777297560 | 11.67° C | 64% | 1014.6 hPa | 0 mm | - | - | - |
| 1777296955 | 11.67° C | 64% | 1014.7 hPa | 0 mm | - | - | - |
| 1777296356 | 11.11° C | 64% | 1014.5 hPa | - | - | - | - |
| 1777295918 | 11.11° C | 65% | 1014.5 hPa | 1.02 mm | - | - | - |
| 1777295309 | 10.56° C | 67% | 1014.5 hPa | 0.51 mm | - | - | - |
| 1777294703 | 10.56° C | 67% | 1014.5 hPa | 0.51 mm | - | - | - |
| 1777294100 | 10.56° C | 67% | 1014.4 hPa | 0.51 mm | - | - | - |
| 1777293491 | 10° C | 69% | 1014.5 hPa | 0 mm | - | - | - |
* Rain latest hour (hover to see other rain measurements)
** Current wind speed in m/s (hover to see current wind gust speed)